Wetterdaten: Montag, 27.10.2014
Datum Zeit Temperatur Luftfeuchte Luftdruck Regen Wind Richtung Richtung Taupunkt Windchill Windben
27.10.2014 00:00 5,0 C 93 % 1026,7 hPa 0,0 l/m 0,0 km/h (0 Bft) N-NW 337 4,0 C 4,8 C 0,0 km/h (0 Bft)
27.10.2014 00:05 5,0 C 93 % 1026,7 hPa 0,0 l/m 0,0 km/h (0 Bft) NW 315 4,0 C 4,7 C 0,0 km/h (0 Bft)
27.10.2014 00:10 4,9 C 94 % 1026,7 hPa 0,0 l/m 0,0 km/h (0 Bft) W-SW 247 4,0 C 4,7 C 0,0 km/h (0 Bft)
27.10.2014 00:15 4,5 C 93 % 1026,7 hPa 0,0 l/m 0,3 km/h (0 Bft) S 180 3,5 C 4,5 C 1,6 km/h (1 Bft)
27.10.2014 00:20 4,3 C 93 % 1026,8 hPa 0,0 l/m 0,6 km/h (0 Bft) SO 135 3,3 C 4,2 C 0,0 km/h (0 Bft)
27.10.2014 00:25 4,1 C 93 % 1026,8 hPa 0,0 l/m 0,3 km/h (0 Bft) S 180 3,1 C 4,1 C 2,3 km/h (1 Bft)
27.10.2014 00:30 4,0 C 93 % 1026,8 hPa 0,0 l/m 0,5 km/h (0 Bft) S-SO 157 3,0 C 3,9 C 3,9 km/h (1 Bft)
27.10.2014 00:35 3,9 C 93 % 1026,8 hPa 0,0 l/m 1,1 km/h (1 Bft) SO 135 2,9 C 3,7 C 0,0 km/h (0 Bft)
27.10.2014 00:40 3,8 C 93 % 1026,8 hPa 0,0 l/m 1,3 km/h (1 Bft) S 180 2,8 C 3,6 C 1,8 km/h (1 Bft)
27.10.2014 00:45 3,5 C 93 % 1026,8 hPa 0,0 l/m 0,8 km/h (0 Bft) S 180 2,5 C 3,3 C 1,6 km/h (1 Bft)
27.10.2014 00:50 3,2 C 93 % 1026,8 hPa 0,0 l/m 2,1 km/h (1 Bft) S 180 2,2 C 3,0 C 4,7 km/h (1 Bft)
27.10.2014 00:55 2,6 C 94 % 1026,8 hPa 0,0 l/m 3,5 km/h (1 Bft) S 180 1,7 C 2,1 C 8,0 km/h (2 Bft)
27.10.2014 01:00 2,4 C 94 % 1026,6 hPa 0,0 l/m 2,9 km/h (1 Bft) S-SO 157 1,5 C 2,1 C 0,0 km/h (0 Bft)
27.10.2014 01:05 2,4 C 94 % 1026,6 hPa 0,0 l/m 1,6 km/h (1 Bft) S-SO 157 1,5 C 1,9 C 0,0 km/h (0 Bft)
27.10.2014 01:10 2,7 C 94 % 1026,6 hPa 0,0 l/m 0,5 km/h (0 Bft) SO 135 1,8 C 2,0 C 0,0 km/h (0 Bft)
27.10.2014 01:15 2,9 C 94 % 1026,6 hPa 0,0 l/m 0,0 km/h (0 Bft) S-SO 157 2,0 C 2,3 C 0,0 km/h (0 Bft)
27.10.2014 01:20 3,2 C 93 % 1026,5 hPa 0,0 l/m 0,0 km/h (0 Bft) SO 135 2,2 C 2,5 C 0,0 km/h (0 Bft)
27.10.2014 01:25 3,3 C 93 % 1026,5 hPa 0,0 l/m 0,0 km/h (0 Bft) W 270 2,3 C 2,6 C 0,0 km/h (0 Bft)
27.10.2014 01:30 3,3 C 93 % 1026,5 hPa 0,0 l/m 0,0 km/h (0 Bft) W 270 2,3 C 2,7 C 0,0 km/h (0 Bft)
27.10.2014 01:35 3,4 C 94 % 1026,5 hPa 0,0 l/m 0,0 km/h (0 Bft) W 270 2,5 C 2,8 C 0,0 km/h (0 Bft)
27.10.2014 01:40 3,4 C 94 % 1026,6 hPa 0,0 l/m 0,0 km/h (0 Bft) NO 45 2,5 C 2,9 C 0,0 km/h (0 Bft)
27.10.2014 01:45 3,5 C 94 % 1026,6 hPa 0,0 l/m 0,0 km/h (0 Bft) NO 45 2,6 C 3,1 C 0,0 km/h (0 Bft)
27.10.2014 01:48 3,6 C 94 % 1026,6 hPa 0,0 l/m 0,0 km/h (0 Bft) N-NO 22 2,7 C 3,1 C 0,0 km/h (0 Bft)
27.10.2014 01:50 3,6 C 94 % 1026,6 hPa 0,0 l/m 0,0 km/h (0 Bft) N-NO 22 2,7 C 3,1 C 0,0 km/h (0 Bft)
27.10.2014 01:55 3,6 C 94 % 1026,6 hPa 0,0 l/m 0,0 km/h (0 Bft) N-NW 337 2,7 C 3,2 C 0,0 km/h (0 Bft)
27.10.2014 02:00 3,6 C 94 % 1026,5 hPa 0,0 l/m 0,0 km/h (0 Bft) NW 315 2,7 C 3,2 C 0,0 km/h (0 Bft)
27.10.2014 02:05 3,7 C 94 % 1026,5 hPa 0,0 l/m 0,0 km/h (0 Bft) NW 315 2,8 C 3,3 C 0,0 km/h (0 Bft)
27.10.2014 02:10 3,7 C 94 % 1026,5 hPa 0,0 l/m 0,0 km/h (0 Bft) N-NW 337 2,8 C 3,3 C 0,0 km/h (0 Bft)
27.10.2014 02:15 3,7 C 94 % 1026,5 hPa 0,0 l/m 0,0 km/h (0 Bft) NW 315 2,8 C 3,3 C 0,0 km/h (0 Bft)
27.10.2014 02:20 3,7 C 94 % 1026,4 hPa 0,0 l/m 0,0 km/h (0 Bft) W-NW 292 2,8 C 3,3 C 0,0 km/h (0 Bft)
27.10.2014 02:25 3,7 C 94 % 1026,4 hPa 0,0 l/m 0,0 km/h (0 Bft) N-NO 22 2,8 C 3,3 C 0,0 km/h (0 Bft)
27.10.2014 02:30 3,7 C 94 % 1026,4 hPa 0,0 l/m 0,0 km/h (0 Bft) NO 45 2,8 C 3,3 C 0,0 km/h (0 Bft)
27.10.2014 02:35 3,7 C 94 % 1026,4 hPa 0,0 l/m 0,0 km/h (0 Bft) NW 315 2,8 C 3,3 C 0,0 km/h (0 Bft)
27.10.2014 02:40 3,7 C 94 % 1026,4 hPa 0,0 l/m 0,0 km/h (0 Bft) NW 315 2,8 C 3,3 C 0,0 km/h (0 Bft)
27.10.2014 02:45 3,7 C 94 % 1026,4 hPa 0,0 l/m 0,0 km/h (0 Bft) NW 315 2,8 C 3,2 C 0,0 km/h (0 Bft)
27.10.2014 02:50 3,7 C 94 % 1026,4 hPa 0,0 l/m 0,0 km/h (0 Bft) NW 315 2,8 C 3,2 C 0,0 km/h (0 Bft)
27.10.2014 02:55 3,7 C 94 % 1026,4 hPa 0,0 l/m 0,0 km/h (0 Bft) NW 315 2,8 C 3,3 C 0,0 km/h (0 Bft)
27.10.2014 03:00 3,8 C 94 % 1026,5 hPa 0,0 l/m 0,0 km/h (0 Bft) NW 315 2,9 C 3,3 C 0,0 km/h (0 Bft)
27.10.2014 03:05 3,8 C 94 % 1026,5 hPa 0,0 l/m 0,0 km/h (0 Bft) NW 315 2,9 C 3,3 C 0,0 km/h (0 Bft)
27.10.2014 03:10 3,9 C 94 % 1026,5 hPa 0,0 l/m 0,0 km/h (0 Bft) NW 315 3,0 C 3,3 C 0,0 km/h (0 Bft)
27.10.2014 03:15 3,9 C 94 % 1026,5 hPa 0,0 l/m 0,0 km/h (0 Bft) NW 315 3,0 C 3,4 C 0,0 km/h (0 Bft)
27.10.2014 03:20 3,9 C 94 % 1026,5 hPa 0,0 l/m 0,0 km/h (0 Bft) NW 315 3,0 C 3,4 C 0,0 km/h (0 Bft)
27.10.2014 03:25 4,0 C 94 % 1026,5 hPa 0,0 l/m 0,0 km/h (0 Bft) NW 315 3,1 C 3,5 C 0,0 km/h (0 Bft)
27.10.2014 03:30 4,0 C 94 % 1026,5 hPa 0,0 l/m 0,0 km/h (0 Bft) S-SW 202 3,1 C 3,6 C 2,3 km/h (1 Bft)
27.10.2014 03:35 4,0 C 94 % 1026,5 hPa 0,0 l/m 1,1 km/h (1 Bft) S-SO 157 3,1 C 3,6 C 2,4 km/h (1 Bft)
27.10.2014 03:40 3,9 C 94 % 1026,4 hPa 0,0 l/m 1,4 km/h (1 Bft) S 180 3,0 C 3,6 C 2,7 km/h (1 Bft)
27.10.2014 03:45 3,9 C 94 % 1026,4 hPa 0,0 l/m 1,8 km/h (1 Bft) S-SO 157 3,0 C 3,6 C 2,3 km/h (1 Bft)
27.10.2014 03:50 3,9 C 94 % 1026,4 hPa 0,0 l/m 2,1 km/h (1 Bft) S 180 3,0 C 3,5 C 1,9 km/h (1 Bft)
27.10.2014 03:55 3,9 C 94 % 1026,4 hPa 0,0 l/m 2,1 km/h (1 Bft) S-SW 202 3,0 C 3,5 C 3,5 km/h (1 Bft)
27.10.2014 04:00 3,8 C 94 % 1026,4 hPa 0,0 l/m 1,9 km/h (1 Bft) S 180 2,9 C 3,5 C 0,0 km/h (0 Bft)
27.10.2014 04:05 3,8 C 94 % 1026,4 hPa 0,0 l/m 1,3 km/h (1 Bft) SW 225 2,9 C 3,4 C 4,3 km/h (1 Bft)
27.10.2014 04:10 3,8 C 94 % 1026,4 hPa 0,0 l/m 1,9 km/h (1 Bft) S 180 2,9 C 3,4 C 3,2 km/h (1 Bft)
27.10.2014 04:15 3,7 C 94 % 1026,4 hPa 0,0 l/m 4,2 km/h (1 Bft) S 180 2,8 C 2,5 C 5,8 km/h (2 Bft)
27.10.2014 04:20 3,7 C 94 % 1026,4 hPa 0,0 l/m 4,5 km/h (1 Bft) S 180 2,8 C 2,3 C 5,0 km/h (1 Bft)
27.10.2014 04:25 3,7 C 94 % 1026,4 hPa 0,0 l/m 3,7 km/h (1 Bft) S-SO 157 2,8 C 2,7 C 1,9 km/h (1 Bft)
27.10.2014 04:30 3,7 C 94 % 1026,4 hPa 0,0 l/m 2,1 km/h (1 Bft) S-SO 157 2,8 C 3,3 C 0,0 km/h (0 Bft)
27.10.2014 04:35 3,8 C 94 % 1026,4 hPa 0,0 l/m 0,3 km/h (0 Bft) W-SW 247 2,9 C 3,3 C 0,0 km/h (0 Bft)
27.10.2014 04:40 3,8 C 94 % 1026,4 hPa 0,0 l/m 0,0 km/h (0 Bft) W-SW 247 2,9 C 3,3 C 0,0 km/h (0 Bft)
27.10.2014 04:45 3,7 C 94 % 1026,4 hPa 0,0 l/m 0,0 km/h (0 Bft) S-SW 202 2,8 C 3,3 C 0,0 km/h (0 Bft)
27.10.2014 04:48 3,7 C 94 % 1026,4 hPa 0,0 l/m 0,6 km/h (0 Bft) S 180 2,8 C 3,3 C 4,0 km/h (1 Bft)
27.10.2014 04:50 3,7 C 94 % 1026,4 hPa 0,0 l/m 0,6 km/h (0 Bft) S 180 2,8 C 3,3 C 4,0 km/h (1 Bft)
27.10.2014 04:55 3,6 C 94 % 1026,4 hPa 0,0 l/m 2,1 km/h (1 Bft) S 180 2,7 C 3,3 C 3,1 km/h (1 Bft)
27.10.2014 05:00 3,5 C 94 % 1026,8 hPa 0,0 l/m 2,6 km/h (1 Bft) S 180 2,6 C 3,3 C 5,1 km/h (1 Bft)
27.10.2014 05:05 3,3 C 94 % 1026,8 hPa 0,0 l/m 3,4 km/h (1 Bft) S 180 2,4 C 2,7 C 4,7 km/h (1 Bft)
27.10.2014 05:10 3,1 C 94 % 1026,8 hPa 0,0 l/m 4,8 km/h (1 Bft) SW 225 2,2 C 1,8 C 6,6 km/h (2 Bft)
27.10.2014 05:15 3,1 C 94 % 1026,8 hPa 0,0 l/m 4,7 km/h (1 Bft) S-SW 202 2,2 C 1,6 C 8,4 km/h (2 Bft)
27.10.2014 05:20 3,1 C 94 % 1027,2 hPa 0,0 l/m 4,2 km/h (1 Bft) S-SW 202 2,2 C 1,7 C 3,5 km/h (1 Bft)
27.10.2014 05:25 3,2 C 94 % 1027,2 hPa 0,0 l/m 3,1 km/h (1 Bft) SO 135 2,3 C 2,3 C 1,6 km/h (1 Bft)
27.10.2014 05:30 3,2 C 94 % 1027,2 hPa 0,0 l/m 2,4 km/h (1 Bft) S 180 2,3 C 2,6 C 3,7 km/h (1 Bft)
27.10.2014 05:35 3,2 C 94 % 1027,2 hPa 0,0 l/m 2,7 km/h (1 Bft) S-SW 202 2,3 C 2,7 C 4,2 km/h (1 Bft)
27.10.2014 05:40 3,2 C 94 % 1027,5 hPa 0,0 l/m 3,2 km/h (1 Bft) S 180 2,3 C 2,4 C 4,8 km/h (1 Bft)
27.10.2014 05:45 3,2 C 94 % 1027,5 hPa 0,0 l/m 1,9 km/h (1 Bft) W-SW 247 2,3 C 2,6 C 2,3 km/h (1 Bft)
27.10.2014 05:50 3,2 C 94 % 1027,5 hPa 0,0 l/m 1,4 km/h (1 Bft) S 180 2,3 C 2,7 C 3,4 km/h (1 Bft)
27.10.2014 05:55 3,3 C 94 % 1027,5 hPa 0,0 l/m 1,6 km/h (1 Bft) S 180 2,4 C 2,8 C 1,9 km/h (1 Bft)
27.10.2014 06:00 3,3 C 94 % 1027,7 hPa 0,0 l/m 1,1 km/h (1 Bft) S 180 2,4 C 2,8 C 0,0 km/h (0 Bft)
27.10.2014 06:05 3,4 C 95 % 1027,7 hPa 0,0 l/m 1,0 km/h (0 Bft) SW 225 2,7 C 2,9 C 0,0 km/h (0 Bft)
27.10.2014 06:10 3,4 C 95 % 1027,7 hPa 0,0 l/m 1,4 km/h (1 Bft) SW 225 2,7 C 2,9 C 1,9 km/h (1 Bft)
27.10.2014 06:15 3,4 C 95 % 1027,7 hPa 0,0 l/m 0,8 km/h (0 Bft) N-NO 22 2,7 C 3,0 C 2,6 km/h (1 Bft)
27.10.2014 06:20 3,4 C 95 % 1027,5 hPa 0,0 l/m 0,6 km/h (0 Bft) NW 315 2,7 C 2,9 C 0,0 km/h (0 Bft)
27.10.2014 06:25 3,4 C 95 % 1027,5 hPa 0,0 l/m 0,5 km/h (0 Bft) N 360 2,7 C 2,9 C 0,0 km/h (0 Bft)
27.10.2014 06:30 3,4 C 95 % 1027,5 hPa 0,0 l/m 0,0 km/h (0 Bft) N-NW 337 2,7 C 2,9 C 0,0 km/h (0 Bft)
27.10.2014 06:35 3,4 C 95 % 1027,5 hPa 0,0 l/m 0,0 km/h (0 Bft) NO 45 2,7 C 2,9 C 0,0 km/h (0 Bft)
27.10.2014 06:40 3,4 C 95 % 1027,3 hPa 0,0 l/m 0,0 km/h (0 Bft) N 360 2,7 C 2,9 C 0,0 km/h (0 Bft)
27.10.2014 06:45 3,4 C 95 % 1027,3 hPa 0,0 l/m 0,0 km/h (0 Bft) W-NW 292 2,7 C 2,9 C 0,0 km/h (0 Bft)
27.10.2014 06:50 3,4 C 95 % 1027,3 hPa 0,0 l/m 0,0 km/h (0 Bft) W-SW 247 2,7 C 2,9 C 0,0 km/h (0 Bft)
27.10.2014 06:55 3,5 C 95 % 1027,3 hPa 0,0 l/m 0,3 km/h (0 Bft) O 90 2,8 C 3,0 C 1,8 km/h (1 Bft)
27.10.2014 07:00 3,6 C 95 % 1027,2 hPa 0,0 l/m 1,0 km/h (0 Bft) O-SO 112 2,9 C 3,1 C 1,9 km/h (1 Bft)
27.10.2014 07:05 3,7 C 95 % 1027,2 hPa 0,0 l/m 1,0 km/h (0 Bft) O-NO 67 3,0 C 3,3 C 0,0 km/h (0 Bft)
27.10.2014 07:10 3,8 C 95 % 1027,2 hPa 0,0 l/m 0,5 km/h (0 Bft) NO 45 3,1 C 3,3 C 0,0 km/h (0 Bft)
27.10.2014 07:15 3,7 C 96 % 1027,2 hPa 0,0 l/m 0,3 km/h (0 Bft) N-NW 337 3,1 C 3,3 C 0,0 km/h (0 Bft)
27.10.2014 07:20 3,6 C 96 % 1027,3 hPa 0,0 l/m 0,2 km/h (0 Bft) N-NW 337 3,0 C 3,3 C 0,0 km/h (0 Bft)
27.10.2014 07:25 3,6 C 96 % 1027,3 hPa 0,0 l/m 0,0 km/h (0 Bft) W-NW 292 3,0 C 3,3 C 0,0 km/h (0 Bft)
27.10.2014 07:30 3,6 C 96 % 1027,3 hPa 0,0 l/m 0,0 km/h (0 Bft) NW 315 3,0 C 3,3 C 0,0 km/h (0 Bft)
27.10.2014 07:35 3,7 C 96 % 1027,3 hPa 0,0 l/m 0,0 km/h (0 Bft) NW 315 3,1 C 3,3 C 0,0 km/h (0 Bft)
27.10.2014 07:40 3,5 C 96 % 1027,2 hPa 0,0 l/m 0,3 km/h (0 Bft) W-SW 247 2,9 C 3,3 C 2,3 km/h (1 Bft)
27.10.2014 07:45 3,6 C 96 % 1027,2 hPa 0,0 l/m 0,6 km/h (0 Bft) W 270 3,0 C 3,3 C 0,0 km/h (0 Bft)
27.10.2014 07:48 3,7 C 96 % 1027,2 hPa 0,0 l/m 0,5 km/h (0 Bft) NW 315 3,1 C 3,3 C 0,0 km/h (0 Bft)
27.10.2014 07:50 3,7 C 96 % 1027,2 hPa 0,0 l/m 0,5 km/h (0 Bft) NW 315 3,1 C 3,3 C 0,0 km/h (0 Bft)
27.10.2014 07:55 3,8 C 96 % 1027,2 hPa 0,0 l/m 0,2 km/h (0 Bft) NW 315 3,2 C 3,3 C 0,0 km/h (0 Bft)
27.10.2014 08:00 3,8 C 96 % 1027,3 hPa 0,0 l/m 0,0 km/h (0 Bft) NW 315 3,2 C 3,3 C 0,0 km/h (0 Bft)
27.10.2014 08:05 3,8 C 96 % 1027,3 hPa 0,0 l/m 0,2 km/h (0 Bft) W-SW 247 3,2 C 3,3 C 0,0 km/h (0 Bft)
27.10.2014 08:10 3,7 C 96 % 1027,3 hPa 0,0 l/m 0,2 km/h (0 Bft) W-SW 247 3,1 C 3,3 C 0,0 km/h (0 Bft)
27.10.2014 08:15 3,7 C 96 % 1027,3 hPa 0,0 l/m 0,2 km/h (0 Bft) W 270 3,1 C 3,4 C 1,6 km/h (1 Bft)
27.10.2014 08:20 3,8 C 96 % 1027,4 hPa 0,0 l/m 0,2 km/h (0 Bft) NW 315 3,2 C 3,4 C 0,0 km/h (0 Bft)
27.10.2014 08:25 3,9 C 96 % 1027,4 hPa 0,0 l/m 0,2 km/h (0 Bft) NW 315 3,3 C 3,5 C 0,0 km/h (0 Bft)
27.10.2014 08:30 4,0 C 96 % 1027,4 hPa 0,0 l/m 0,0 km/h (0 Bft) W-SW 247 3,4 C 3,5 C 0,0 km/h (0 Bft)
27.10.2014 08:35 4,2 C 96 % 1027,4 hPa 0,0 l/m 0,0 km/h (0 Bft) W 270 3,6 C 3,7 C 0,0 km/h (0 Bft)
27.10.2014 08:40 4,2 C 96 % 1027,6 hPa 0,0 l/m 0,2 km/h (0 Bft) NW 315 3,6 C 3,7 C 0,0 km/h (0 Bft)
27.10.2014 08:45 4,2 C 96 % 1027,6 hPa 0,0 l/m 0,5 km/h (0 Bft) NO 45 3,6 C 3,8 C 2,6 km/h (1 Bft)
27.10.2014 08:50 4,2 C 96 % 1027,6 hPa 0,0 l/m 0,3 km/h (0 Bft) N-NW 337 3,6 C 3,8 C 0,0 km/h (0 Bft)
27.10.2014 08:55 4,4 C 96 % 1027,6 hPa 0,0 l/m 1,0 km/h (0 Bft) N-NO 22 3,8 C 3,9 C 1,9 km/h (1 Bft)
27.10.2014 09:00 4,3 C 96 % 1027,5 hPa 0,0 l/m 1,3 km/h (1 Bft) NO 45 3,7 C 4,0 C 4,8 km/h (1 Bft)
27.10.2014 09:05 4,1 C 95 % 1027,5 hPa 0,0 l/m 1,9 km/h (1 Bft) N-NO 22 3,4 C 3,9 C 0,0 km/h (0 Bft)
27.10.2014 09:10 4,2 C 95 % 1027,5 hPa 0,0 l/m 2,6 km/h (1 Bft) O-NO 67 3,5 C 3,9 C 2,9 km/h (1 Bft)
27.10.2014 09:15 4,1 C 95 % 1027,5 hPa 0,0 l/m 2,6 km/h (1 Bft) O-NO 67 3,4 C 3,9 C 3,7 km/h (1 Bft)
27.10.2014 09:20 4,2 C 95 % 1027,4 hPa 0,0 l/m 2,6 km/h (1 Bft) N-NW 337 3,5 C 3,9 C 2,4 km/h (1 Bft)
27.10.2014 09:25 4,4 C 95 % 1027,4 hPa 0,0 l/m 2,1 km/h (1 Bft) N-NW 337 3,7 C 3,9 C 2,7 km/h (1 Bft)
27.10.2014 09:30 4,3 C 95 % 1027,4 hPa 0,0 l/m 2,1 km/h (1 Bft) N-NO 22 3,6 C 4,0 C 2,1 km/h (1 Bft)
27.10.2014 09:35 4,5 C 95 % 1027,4 hPa 0,0 l/m 1,3 km/h (1 Bft) NW 315 3,8 C 4,0 C 0,0 km/h (0 Bft)
27.10.2014 09:40 4,4 C 95 % 1027,6 hPa 0,0 l/m 0,6 km/h (0 Bft) O 90 3,7 C 4,1 C 0,0 km/h (0 Bft)
27.10.2014 09:45 4,2 C 95 % 1027,6 hPa 0,0 l/m 1,0 km/h (0 Bft) SO 135 3,5 C 4,0 C 3,1 km/h (1 Bft)
27.10.2014 09:50 4,2 C 95 % 1027,6 hPa 0,0 l/m 1,6 km/h (1 Bft) O-SO 112 3,5 C 4,0 C 0,0 km/h (0 Bft)
27.10.2014 09:55 4,8 C 95 % 1027,6 hPa 0,0 l/m 0,8 km/h (0 Bft) N-NO 22 4,1 C 4,3 C 0,0 km/h (0 Bft)
27.10.2014 10:00 4,8 C 95 % 1027,7 hPa 0,0 l/m 0,3 km/h (0 Bft) N-NW 337 4,1 C 4,5 C 0,0 km/h (0 Bft)
27.10.2014 10:05 4,9 C 95 % 1027,7 hPa 0,0 l/m 1,4 km/h (1 Bft) NW 315 4,2 C 4,5 C 1,8 km/h (1 Bft)
27.10.2014 10:10 5,0 C 94 % 1027,7 hPa 0,0 l/m 1,1 km/h (1 Bft) N-NW 337 4,1 C 4,7 C 0,0 km/h (0 Bft)
27.10.2014 10:15 5,3 C 94 % 1027,7 hPa 0,0 l/m 0,2 km/h (0 Bft) SW 225 4,4 C 5,0 C 1,9 km/h (1 Bft)
27.10.2014 10:20 5,4 C 94 % 1027,6 hPa 0,0 l/m 0,2 km/h (0 Bft) O-SO 112 4,5 C 5,3 C 1,6 km/h (1 Bft)
27.10.2014 10:25 5,2 C 94 % 1027,6 hPa 0,0 l/m 0,3 km/h (0 Bft) N-NW 337 4,3 C 5,3 C 2,6 km/h (1 Bft)
27.10.2014 10:30 5,3 C 94 % 1027,6 hPa 0,0 l/m 0,6 km/h (0 Bft) NW 315 4,4 C 5,3 C 0,0 km/h (0 Bft)
27.10.2014 10:35 5,4 C 94 % 1027,6 hPa 0,0 l/m 1,9 km/h (1 Bft) O-SO 112 4,5 C 5,4 C 4,2 km/h (1 Bft)
27.10.2014 10:40 5,3 C 94 % 1027,5 hPa 0,0 l/m 1,9 km/h (1 Bft) S-SO 157 4,4 C 5,4 C 2,4 km/h (1 Bft)
27.10.2014 10:45 5,2 C 94 % 1027,5 hPa 0,0 l/m 2,3 km/h (1 Bft) N-NO 22 4,3 C 5,5 C 4,8 km/h (1 Bft)
27.10.2014 10:48 5,2 C 94 % 1027,5 hPa 0,0 l/m 2,6 km/h (1 Bft) O-SO 112 4,3 C 5,5 C 2,4 km/h (1 Bft)
27.10.2014 10:50 5,2 C 94 % 1027,5 hPa 0,0 l/m 2,6 km/h (1 Bft) O-SO 112 4,3 C 5,5 C 2,4 km/h (1 Bft)
27.10.2014 10:55 5,6 C 93 % 1027,5 hPa 0,0 l/m 1,8 km/h (1 Bft) SW 225 4,6 C 5,8 C 2,3 km/h (1 Bft)
27.10.2014 11:00 5,5 C 93 % 1027,6 hPa 0,0 l/m 1,3 km/h (1 Bft) S-SO 157 4,5 C 6,0 C 3,5 km/h (1 Bft)
27.10.2014 11:05 5,6 C 93 % 1027,6 hPa 0,0 l/m 2,3 km/h (1 Bft) O-NO 67 4,6 C 6,0 C 4,3 km/h (1 Bft)
27.10.2014 11:10 5,8 C 92 % 1027,6 hPa 0,0 l/m 2,7 km/h (1 Bft) O-SO 112 4,6 C 6,2 C 2,7 km/h (1 Bft)
27.10.2014 11:15 5,8 C 92 % 1027,6 hPa 0,0 l/m 2,6 km/h (1 Bft) N-NO 22 4,6 C 6,4 C 5,8 km/h (2 Bft)
27.10.2014 11:20 6,1 C 90 % 1027,4 hPa 0,0 l/m 2,3 km/h (1 Bft) S-SW 202 4,6 C 6,5 C 3,1 km/h (1 Bft)
27.10.2014 11:25 6,0 C 90 % 1027,4 hPa 0,0 l/m 2,1 km/h (1 Bft) O 90 4,5 C 6,6 C 2,9 km/h (1 Bft)
27.10.2014 11:30 6,1 C 90 % 1027,4 hPa 0,0 l/m 2,1 km/h (1 Bft) SO 135 4,6 C 6,6 C 0,0 km/h (0 Bft)
27.10.2014 11:35 6,3 C 90 % 1027,4 hPa 0,0 l/m 2,3 km/h (1 Bft) S 180 4,8 C 6,9 C 2,3 km/h (1 Bft)
27.10.2014 11:40 6,5 C 90 % 1027,3 hPa 0,0 l/m 1,8 km/h (1 Bft) O 90 5,0 C 7,1 C 4,2 km/h (1 Bft)
27.10.2014 11:45 6,3 C 89 % 1027,3 hPa 0,0 l/m 1,9 km/h (1 Bft) O-SO 112 4,6 C 7,1 C 0,0 km/h (0 Bft)
27.10.2014 11:50 6,4 C 89 % 1027,3 hPa 0,0 l/m 2,4 km/h (1 Bft) O-SO 112 4,7 C 7,1 C 4,2 km/h (1 Bft)
27.10.2014 11:55 6,1 C 88 % 1027,3 hPa 0,0 l/m 3,2 km/h (1 Bft) N-NW 337 4,3 C 6,8 C 9,0 km/h (2 Bft)
27.10.2014 12:00 6,1 C 88 % 1027,1 hPa 0,0 l/m 3,7 km/h (1 Bft) O-NO 67 4,3 C 6,6 C 4,5 km/h (1 Bft)
27.10.2014 12:05 6,2 C 89 % 1027,1 hPa 0,0 l/m 3,9 km/h (1 Bft) O-SO 112 4,5 C 6,2 C 4,5 km/h (1 Bft)
27.10.2014 12:10 6,2 C 89 % 1027,1 hPa 0,0 l/m 3,1 km/h (1 Bft) N-NW 337 4,5 C 6,6 C 3,2 km/h (1 Bft)
27.10.2014 12:15 6,1 C 89 % 1027,1 hPa 0,0 l/m 2,9 km/h (1 Bft) NO 45 4,4 C 6,6 C 6,4 km/h (2 Bft)
27.10.2014 12:20 6,2 C 89 % 1026,9 hPa 0,0 l/m 3,4 km/h (1 Bft) N-NW 337 4,5 C 6,6 C 6,3 km/h (2 Bft)
27.10.2014 12:25 6,1 C 89 % 1026,9 hPa 0,0 l/m 3,5 km/h (1 Bft) NO 45 4,4 C 6,4 C 3,9 km/h (1 Bft)
27.10.2014 12:30 6,2 C 89 % 1026,9 hPa 0,0 l/m 3,7 km/h (1 Bft) N 360 4,5 C 6,3 C 5,5 km/h (1 Bft)
27.10.2014 12:35 6,5 C 89 % 1026,9 hPa 0,0 l/m 3,4 km/h (1 Bft) N-NO 22 4,8 C 6,6 C 3,4 km/h (1 Bft)
27.10.2014 12:40 6,0 C 87 % 1026,8 hPa 0,0 l/m 2,9 km/h (1 Bft) N-NO 22 4,0 C 6,7 C 4,7 km/h (1 Bft)
27.10.2014 12:45 6,3 C 88 % 1026,8 hPa 0,0 l/m 2,9 km/h (1 Bft) NO 45 4,5 C 6,7 C 5,3 km/h (1 Bft)
27.10.2014 12:50 6,2 C 88 % 1026,8 hPa 0,0 l/m 2,7 km/h (1 Bft) NO 45 4,4 C 6,7 C 3,1 km/h (1 Bft)
27.10.2014 12:55 6,1 C 88 % 1026,8 hPa 0,0 l/m 2,7 km/h (1 Bft) NO 45 4,3 C 6,7 C 6,0 km/h (2 Bft)
27.10.2014 13:00 6,0 C 88 % 1026,6 hPa 0,0 l/m 3,1 km/h (1 Bft) NO 45 4,2 C 6,5 C 6,3 km/h (2 Bft)
27.10.2014 13:05 6,0 C 88 % 1026,6 hPa 0,0 l/m 4,0 km/h (1 Bft) N-NO 22 4,2 C 6,1 C 5,0 km/h (1 Bft)
27.10.2014 13:10 6,1 C 88 % 1026,6 hPa 0,0 l/m 3,5 km/h (1 Bft) N-NW 337 4,3 C 6,3 C 4,0 km/h (1 Bft)
27.10.2014 13:15 6,0 C 88 % 1026,6 hPa 0,0 l/m 4,0 km/h (1 Bft) S-SW 202 4,2 C 6,1 C 7,1 km/h (2 Bft)
27.10.2014 13:20 6,3 C 88 % 1026,5 hPa 0,0 l/m 3,7 km/h (1 Bft) O 90 4,5 C 6,1 C 0,0 km/h (0 Bft)
27.10.2014 13:25 6,1 C 87 % 1026,5 hPa 0,0 l/m 3,4 km/h (1 Bft) O-NO 67 4,1 C 6,3 C 9,7 km/h (2 Bft)
27.10.2014 13:30 6,2 C 88 % 1026,5 hPa 0,0 l/m 3,7 km/h (1 Bft) NO 45 4,4 C 6,2 C 3,5 km/h (1 Bft)
27.10.2014 13:35 5,9 C 88 % 1026,5 hPa 0,0 l/m 4,2 km/h (1 Bft) O-SO 112 4,1 C 5,8 C 5,1 km/h (1 Bft)
27.10.2014 13:40 6,0 C 87 % 1026,4 hPa 0,0 l/m 4,7 km/h (1 Bft) NO 45 4,0 C 5,6 C 5,0 km/h (1 Bft)
27.10.2014 13:43 6,1 C 88 % 1026,4 hPa 0,0 l/m 4,0 km/h (1 Bft) O-NO 67 4,3 C 5,8 C 5,6 km/h (1 Bft)
27.10.2014 13:45 6,1 C 88 % 1026,4 hPa 0,0 l/m 4,0 km/h (1 Bft) O-NO 67 4,3 C 5,8 C 5,6 km/h (1 Bft)
27.10.2014 13:50 6,0 C 88 % 1026,4 hPa 0,0 l/m 3,7 km/h (1 Bft) O-NO 67 4,2 C 6,0 C 5,0 km/h (1 Bft)
27.10.2014 13:55 5,8 C 88 % 1026,4 hPa 0,0 l/m 4,3 km/h (1 Bft) O-NO 67 4,0 C 5,6 C 5,3 km/h (1 Bft)
27.10.2014 14:00 5,8 C 88 % 1026,1 hPa 0,0 l/m 4,3 km/h (1 Bft) O 90 4,0 C 5,4 C 5,8 km/h (2 Bft)
27.10.2014 14:05 5,8 C 88 % 1026,1 hPa 0,0 l/m 4,0 km/h (1 Bft) N-NO 22 4,0 C 5,6 C 8,4 km/h (2 Bft)
27.10.2014 14:10 5,7 C 88 % 1026,1 hPa 0,0 l/m 3,9 km/h (1 Bft) O 90 3,9 C 5,6 C 4,0 km/h (1 Bft)
27.10.2014 14:15 5,7 C 88 % 1026,1 hPa 0,0 l/m 3,9 km/h (1 Bft) O-NO 67 3,9 C 5,6 C 4,5 km/h (1 Bft)
27.10.2014 14:20 5,7 C 89 % 1026,0 hPa 0,0 l/m 2,9 km/h (1 Bft) O-SO 112 4,0 C 5,9 C 0,0 km/h (0 Bft)
27.10.2014 14:25 5,4 C 89 % 1026,0 hPa 0,0 l/m 2,6 km/h (1 Bft) O-NO 67 3,7 C 5,8 C 4,0 km/h (1 Bft)
27.10.2014 14:30 5,6 C 89 % 1026,0 hPa 0,0 l/m 3,2 km/h (1 Bft) O-NO 67 3,9 C 5,7 C 4,7 km/h (1 Bft)
27.10.2014 14:35 5,6 C 89 % 1026,0 hPa 0,0 l/m 3,7 km/h (1 Bft) S-SO 157 3,9 C 5,4 C 5,1 km/h (1 Bft)
27.10.2014 14:40 5,6 C 89 % 1025,8 hPa 0,0 l/m 3,7 km/h (1 Bft) S-SO 157 3,9 C 5,4 C 4,8 km/h (1 Bft)
27.10.2014 14:45 5,5 C 89 % 1025,8 hPa 0,0 l/m 3,5 km/h (1 Bft) O-SO 112 3,8 C 5,4 C 3,4 km/h (1 Bft)
27.10.2014 14:50 5,5 C 89 % 1025,8 hPa 0,0 l/m 4,0 km/h (1 Bft) N-NO 22 3,8 C 5,2 C 6,8 km/h (2 Bft)
27.10.2014 14:55 5,4 C 89 % 1025,8 hPa 0,0 l/m 4,2 km/h (1 Bft) O-NO 67 3,7 C 5,1 C 10,8 km/h (2 Bft)
27.10.2014 15:00 5,3 C 89 % 1025,7 hPa 0,0 l/m 4,0 km/h (1 Bft) O-SO 112 3,6 C 5,1 C 4,2 km/h (1 Bft)
27.10.2014 15:05 5,3 C 89 % 1025,7 hPa 0,0 l/m 4,3 km/h (1 Bft) O-NO 67 3,6 C 4,8 C 4,8 km/h (1 Bft)
27.10.2014 15:10 5,4 C 89 % 1025,7 hPa 0,0 l/m 4,5 km/h (1 Bft) SO 135 3,7 C 4,7 C 4,7 km/h (1 Bft)
27.10.2014 15:15 5,5 C 90 % 1025,7 hPa 0,0 l/m 3,4 km/h (1 Bft) O-SO 112 4,0 C 5,4 C 2,9 km/h (1 Bft)
27.10.2014 15:20 5,5 C 90 % 1025,3 hPa 0,0 l/m 2,4 km/h (1 Bft) O-NO 67 4,0 C 5,6 C 2,3 km/h (1 Bft)
27.10.2014 15:25 5,6 C 90 % 1025,3 hPa 0,0 l/m 2,4 km/h (1 Bft) N-NO 22 4,1 C 5,7 C 3,1 km/h (1 Bft)
27.10.2014 15:30 5,6 C 90 % 1025,3 hPa 0,0 l/m 3,1 km/h (1 Bft) O-NO 67 4,1 C 5,7 C 3,4 km/h (1 Bft)
27.10.2014 15:35 5,7 C 90 % 1025,3 hPa 0,0 l/m 2,4 km/h (1 Bft) O 90 4,2 C 5,7 C 4,8 km/h (1 Bft)
27.10.2014 15:40 5,7 C 90 % 1025,3 hPa 0,0 l/m 2,7 km/h (1 Bft) O-SO 112 4,2 C 5,8 C 2,1 km/h (1 Bft)
27.10.2014 15:45 5,7 C 90 % 1025,3 hPa 0,0 l/m 3,5 km/h (1 Bft) O 90 4,2 C 5,6 C 3,7 km/h (1 Bft)
27.10.2014 15:50 5,6 C 90 % 1025,3 hPa 0,0 l/m 2,7 km/h (1 Bft) NO 45 4,1 C 5,7 C 3,7 km/h (1 Bft)
27.10.2014 15:55 5,6 C 90 % 1025,3 hPa 0,0 l/m 2,6 km/h (1 Bft) N-NO 22 4,1 C 5,7 C 4,8 km/h (1 Bft)
27.10.2014 16:00 5,6 C 90 % 1025,2 hPa 0,0 l/m 3,2 km/h (1 Bft) NO 45 4,1 C 5,7 C 5,5 km/h (1 Bft)
27.10.2014 16:05 5,7 C 90 % 1025,2 hPa 0,0 l/m 3,5 km/h (1 Bft) O-NO 67 4,2 C 5,4 C 4,2 km/h (1 Bft)
27.10.2014 16:10 5,5 C 90 % 1025,2 hPa 0,0 l/m 4,2 km/h (1 Bft) O-NO 67 4,0 C 5,1 C 6,0 km/h (2 Bft)
27.10.2014 16:15 5,6 C 90 % 1025,2 hPa 0,0 l/m 4,3 km/h (1 Bft) O-SO 112 4,1 C 4,9 C 7,1 km/h (2 Bft)
27.10.2014 16:20 5,5 C 90 % 1025,1 hPa 0,0 l/m 4,2 km/h (1 Bft) NO 45 4,0 C 4,8 C 2,6 km/h (1 Bft)
27.10.2014 16:25 5,5 C 90 % 1025,1 hPa 0,0 l/m 3,7 km/h (1 Bft) O-NO 67 4,0 C 5,1 C 3,7 km/h (1 Bft)
27.10.2014 16:30 5,5 C 90 % 1025,1 hPa 0,0 l/m 2,6 km/h (1 Bft) O-SO 112 4,0 C 5,4 C 3,7 km/h (1 Bft)
27.10.2014 16:35 5,4 C 90 % 1025,1 hPa 0,0 l/m 2,7 km/h (1 Bft) O-SO 112 3,9 C 5,3 C 2,6 km/h (1 Bft)
27.10.2014 16:40 5,4 C 91 % 1025,1 hPa 0,0 l/m 2,4 km/h (1 Bft) O-SO 112 4,1 C 5,3 C 3,2 km/h (1 Bft)
27.10.2014 16:43 5,4 C 91 % 1025,1 hPa 0,0 l/m 2,1 km/h (1 Bft) O-NO 67 4,1 C 5,3 C 4,3 km/h (1 Bft)
27.10.2014 16:45 5,4 C 91 % 1025,1 hPa 0,0 l/m 2,1 km/h (1 Bft) O-NO 67 4,1 C 5,3 C 4,3 km/h (1 Bft)
27.10.2014 16:50 5,4 C 91 % 1025,1 hPa 0,0 l/m 2,4 km/h (1 Bft) O-NO 67 4,1 C 5,3 C 2,6 km/h (1 Bft)
27.10.2014 16:55 5,4 C 91 % 1025,1 hPa 0,0 l/m 2,7 km/h (1 Bft) SO 135 4,1 C 5,3 C 6,1 km/h (2 Bft)
27.10.2014 17:00 5,3 C 91 % 1025,1 hPa 0,0 l/m 3,4 km/h (1 Bft) NO 45 4,0 C 5,1 C 2,6 km/h (1 Bft)
27.10.2014 17:05 5,3 C 91 % 1025,1 hPa 0,0 l/m 3,4 km/h (1 Bft) O-NO 67 4,0 C 5,1 C 3,4 km/h (1 Bft)
27.10.2014 17:10 5,3 C 91 % 1025,1 hPa 0,0 l/m 3,1 km/h (1 Bft) NO 45 4,0 C 5,2 C 3,4 km/h (1 Bft)
27.10.2014 17:15 5,2 C 92 % 1025,1 hPa 0,0 l/m 3,2 km/h (1 Bft) O-NO 67 4,0 C 5,0 C 5,5 km/h (1 Bft)
27.10.2014 17:20 5,2 C 92 % 1025,1 hPa 0,0 l/m 3,1 km/h (1 Bft) O 90 4,0 C 5,1 C 0,0 km/h (0 Bft)
27.10.2014 17:25 5,3 C 92 % 1025,1 hPa 0,0 l/m 2,9 km/h (1 Bft) O-SO 112 4,1 C 5,1 C 3,2 km/h (1 Bft)
27.10.2014 17:30 5,2 C 92 % 1025,1 hPa 0,0 l/m 2,4 km/h (1 Bft) O-NO 67 4,0 C 5,1 C 0,0 km/h (0 Bft)
27.10.2014 17:35 5,2 C 92 % 1025,1 hPa 0,0 l/m 1,9 km/h (1 Bft) O 90 4,0 C 5,1 C 1,6 km/h (1 Bft)
27.10.2014 17:40 5,3 C 92 % 1025,2 hPa 0,0 l/m 1,6 km/h (1 Bft) N-NW 337 4,1 C 5,1 C 0,0 km/h (0 Bft)
27.10.2014 17:45 5,3 C 92 % 1025,2 hPa 0,0 l/m 1,9 km/h (1 Bft) N-NO 22 4,1 C 5,1 C 2,9 km/h (1 Bft)
27.10.2014 17:50 5,3 C 92 % 1025,2 hPa 0,0 l/m 2,7 km/h (1 Bft) O-SO 112 4,1 C 5,1 C 4,8 km/h (1 Bft)
27.10.2014 17:55 5,2 C 92 % 1025,2 hPa 0,0 l/m 3,5 km/h (1 Bft) O-SO 112 4,0 C 4,8 C 3,9 km/h (1 Bft)
27.10.2014 18:00 5,2 C 92 % 1025,2 hPa 0,0 l/m 3,2 km/h (1 Bft) SO 135 4,0 C 4,9 C 3,7 km/h (1 Bft)
27.10.2014 18:05 5,2 C 92 % 1025,2 hPa 0,0 l/m 2,6 km/h (1 Bft) O-SO 112 4,0 C 5,0 C 4,8 km/h (1 Bft)
27.10.2014 18:10 5,1 C 93 % 1025,2 hPa 0,0 l/m 2,9 km/h (1 Bft) O-NO 67 4,1 C 5,0 C 3,7 km/h (1 Bft)
27.10.2014 18:15 5,1 C 93 % 1025,2 hPa 0,0 l/m 3,9 km/h (1 Bft) N-NO 22 4,1 C 4,6 C 5,5 km/h (1 Bft)
27.10.2014 18:20 5,2 C 93 % 1025,1 hPa 0,0 l/m 3,4 km/h (1 Bft) O-SO 112 4,2 C 4,8 C 3,5 km/h (1 Bft)
27.10.2014 18:25 5,2 C 93 % 1025,1 hPa 0,0 l/m 3,2 km/h (1 Bft) N-NW 337 4,2 C 4,9 C 3,7 km/h (1 Bft)
27.10.2014 18:30 5,2 C 93 % 1025,1 hPa 0,0 l/m 2,3 km/h (1 Bft) NO 45 4,2 C 5,0 C 0,0 km/h (0 Bft)
27.10.2014 18:35 5,2 C 93 % 1025,1 hPa 0,0 l/m 0,8 km/h (0 Bft) NO 45 4,2 C 5,0 C 1,9 km/h (1 Bft)
27.10.2014 18:40 5,2 C 93 % 1025,1 hPa 0,0 l/m 1,4 km/h (1 Bft) O-SO 112 4,2 C 5,0 C 2,9 km/h (1 Bft)
27.10.2014 18:45 5,1 C 93 % 1025,1 hPa 0,0 l/m 2,3 km/h (1 Bft) O-SO 112 4,1 C 5,0 C 0,0 km/h (0 Bft)
27.10.2014 18:50 5,1 C 93 % 1025,1 hPa 0,0 l/m 1,8 km/h (1 Bft) O-NO 67 4,1 C 5,0 C 2,6 km/h (1 Bft)
27.10.2014 18:55 5,1 C 93 % 1025,1 hPa 0,0 l/m 2,3 km/h (1 Bft) O-SO 112 4,1 C 5,0 C 1,9 km/h (1 Bft)
27.10.2014 19:00 5,1 C 93 % 1025,1 hPa 0,0 l/m 2,4 km/h (1 Bft) O-SO 112 4,1 C 5,0 C 3,9 km/h (1 Bft)
27.10.2014 19:05 5,1 C 93 % 1025,1 hPa 0,0 l/m 1,8 km/h (1 Bft) O-NO 67 4,1 C 4,8 C 2,9 km/h (1 Bft)
27.10.2014 19:10 5,1 C 93 % 1025,1 hPa 0,0 l/m 2,1 km/h (1 Bft) O-SO 112 4,1 C 4,8 C 3,4 km/h (1 Bft)
27.10.2014 19:15 5,0 C 93 % 1025,1 hPa 0,0 l/m 2,7 km/h (1 Bft) O-SO 112 4,0 C 4,9 C 4,3 km/h (1 Bft)
27.10.2014 19:20 5,0 C 93 % 1025,1 hPa 0,0 l/m 2,7 km/h (1 Bft) O-NO 67 4,0 C 4,8 C 2,6 km/h (1 Bft)
27.10.2014 19:25 5,0 C 93 % 1025,1 hPa 0,0 l/m 1,9 km/h (1 Bft) N-NO 22 4,0 C 4,7 C 3,1 km/h (1 Bft)
27.10.2014 19:30 5,0 C 93 % 1025,1 hPa 0,0 l/m 1,6 km/h (1 Bft) O-NO 67 4,0 C 4,8 C 2,7 km/h (1 Bft)
27.10.2014 19:35 5,0 C 93 % 1025,1 hPa 0,0 l/m 1,8 km/h (1 Bft) O-SO 112 4,0 C 4,8 C 2,9 km/h (1 Bft)
27.10.2014 19:40 5,1 C 93 % 1025,0 hPa 0,0 l/m 1,9 km/h (1 Bft) O 90 4,1 C 4,8 C 2,9 km/h (1 Bft)
27.10.2014 19:43 5,1 C 93 % 1025,0 hPa 0,0 l/m 1,6 km/h (1 Bft) SO 135 4,1 C 4,8 C 4,3 km/h (1 Bft)
27.10.2014 19:45 5,1 C 93 % 1025,0 hPa 0,0 l/m 1,6 km/h (1 Bft) SO 135 4,1 C 4,8 C 4,3 km/h (1 Bft)
27.10.2014 19:50 5,1 C 93 % 1025,0 hPa 0,0 l/m 1,8 km/h (1 Bft) NO 45 4,1 C 4,8 C 3,7 km/h (1 Bft)
27.10.2014 19:55 5,1 C 93 % 1025,0 hPa 0,0 l/m 2,3 km/h (1 Bft) O-SO 112 4,1 C 4,8 C 3,9 km/h (1 Bft)
27.10.2014 20:00 5,0 C 93 % 1024,8 hPa 0,0 l/m 2,3 km/h (1 Bft) O-NO 67 4,0 C 4,8 C 3,4 km/h (1 Bft)
27.10.2014 20:05 5,1 C 93 % 1024,8 hPa 0,0 l/m 2,1 km/h (1 Bft) O-SO 112 4,1 C 4,8 C 3,9 km/h (1 Bft)
27.10.2014 20:10 5,0 C 93 % 1024,8 hPa 0,0 l/m 2,7 km/h (1 Bft) O-NO 67 4,0 C 4,7 C 5,0 km/h (1 Bft)
27.10.2014 20:15 4,9 C 94 % 1024,8 hPa 0,0 l/m 2,7 km/h (1 Bft) O-NO 67 4,0 C 4,8 C 2,7 km/h (1 Bft)
27.10.2014 20:20 4,9 C 94 % 1024,6 hPa 0,0 l/m 2,7 km/h (1 Bft) O-NO 67 4,0 C 4,8 C 1,9 km/h (1 Bft)
27.10.2014 20:25 4,9 C 94 % 1024,6 hPa 0,0 l/m 2,7 km/h (1 Bft) O-NO 67 4,0 C 4,7 C 2,9 km/h (1 Bft)
27.10.2014 20:30 4,9 C 94 % 1024,6 hPa 0,0 l/m 2,4 km/h (1 Bft) NO 45 4,0 C 4,7 C 3,1 km/h (1 Bft)
27.10.2014 20:35 4,9 C 94 % 1024,6 hPa 0,0 l/m 1,6 km/h (1 Bft) O-NO 67 4,0 C 4,7 C 0,0 km/h (0 Bft)
27.10.2014 20:40 4,9 C 94 % 1024,8 hPa 0,0 l/m 1,4 km/h (1 Bft) SO 135 4,0 C 4,7 C 3,1 km/h (1 Bft)
27.10.2014 20:45 4,9 C 94 % 1024,8 hPa 0,0 l/m 1,0 km/h (0 Bft) NO 45 4,0 C 4,7 C 0,0 km/h (0 Bft)
27.10.2014 20:50 4,9 C 94 % 1024,8 hPa 0,0 l/m 1,3 km/h (1 Bft) O 90 4,0 C 4,7 C 0,0 km/h (0 Bft)
27.10.2014 20:55 4,9 C 94 % 1024,8 hPa 0,0 l/m 2,3 km/h (1 Bft) NO 45 4,0 C 4,6 C 3,9 km/h (1 Bft)
27.10.2014 21:00 4,8 C 94 % 1024,6 hPa 0,0 l/m 2,1 km/h (1 Bft) O-SO 112 3,9 C 4,6 C 3,1 km/h (1 Bft)
27.10.2014 21:05 4,8 C 94 % 1024,6 hPa 0,0 l/m 2,3 km/h (1 Bft) O-SO 112 3,9 C 4,6 C 0,0 km/h (0 Bft)
27.10.2014 21:10 4,7 C 94 % 1024,6 hPa 0,0 l/m 2,6 km/h (1 Bft) O 90 3,8 C 4,5 C 2,6 km/h (1 Bft)
27.10.2014 21:15 4,7 C 94 % 1024,6 hPa 0,0 l/m 1,9 km/h (1 Bft) O-SO 112 3,8 C 4,5 C 0,0 km/h (0 Bft)
27.10.2014 21:20 4,7 C 94 % 1024,6 hPa 0,0 l/m 3,1 km/h (1 Bft) S-SO 157 3,8 C 4,3 C 4,8 km/h (1 Bft)
27.10.2014 21:25 4,7 C 94 % 1024,6 hPa 0,0 l/m 3,7 km/h (1 Bft) O-SO 112 3,8 C 4,0 C 1,9 km/h (1 Bft)
27.10.2014 21:30 4,7 C 94 % 1024,6 hPa 0,0 l/m 2,7 km/h (1 Bft) SO 135 3,8 C 4,4 C 3,1 km/h (1 Bft)
27.10.2014 21:35 4,6 C 94 % 1024,6 hPa 0,0 l/m 1,9 km/h (1 Bft) O-SO 112 3,7 C 4,4 C 1,6 km/h (1 Bft)
27.10.2014 21:40 4,6 C 94 % 1024,6 hPa 0,0 l/m 2,1 km/h (1 Bft) O-NO 67 3,7 C 4,4 C 2,7 km/h (1 Bft)
27.10.2014 21:45 4,7 C 94 % 1024,6 hPa 0,0 l/m 2,1 km/h (1 Bft) O-NO 67 3,8 C 4,4 C 0,0 km/h (0 Bft)
27.10.2014 21:50 4,7 C 94 % 1024,6 hPa 0,0 l/m 1,9 km/h (1 Bft) NO 45 3,8 C 4,4 C 1,6 km/h (1 Bft)
27.10.2014 21:55 4,7 C 94 % 1024,6 hPa 0,0 l/m 1,8 km/h (1 Bft) SO 135 3,8 C 4,4 C 1,6 km/h (1 Bft)
27.10.2014 22:00 4,7 C 94 % 1024,3 hPa 0,0 l/m 1,9 km/h (1 Bft) O-NO 67 3,8 C 4,4 C 1,9 km/h (1 Bft)
27.10.2014 22:05 4,7 C 94 % 1024,3 hPa 0,0 l/m 1,6 km/h (1 Bft) O-SO 112 3,8 C 4,4 C 2,1 km/h (1 Bft)
27.10.2014 22:10 4,7 C 94 % 1024,3 hPa 0,0 l/m 1,4 km/h (1 Bft) O-NO 67 3,8 C 4,4 C 2,3 km/h (1 Bft)
27.10.2014 22:15 4,7 C 94 % 1024,3 hPa 0,0 l/m 1,4 km/h (1 Bft) N-NO 22 3,8 C 4,4 C 2,1 km/h (1 Bft)
27.10.2014 22:20 4,6 C 94 % 1024,4 hPa 0,0 l/m 2,1 km/h (1 Bft) O-SO 112 3,7 C 4,4 C 2,6 km/h (1 Bft)
27.10.2014 22:25 4,6 C 94 % 1024,4 hPa 0,0 l/m 2,6 km/h (1 Bft) NO 45 3,7 C 4,4 C 1,8 km/h (1 Bft)
27.10.2014 22:30 4,6 C 94 % 1024,4 hPa 0,0 l/m 2,7 km/h (1 Bft) O-NO 67 3,7 C 4,4 C 0,0 km/h (0 Bft)
27.10.2014 22:35 4,7 C 94 % 1024,4 hPa 0,0 l/m 2,3 km/h (1 Bft) O-NO 67 3,8 C 4,4 C 3,4 km/h (1 Bft)
27.10.2014 22:40 4,6 C 94 % 1024,1 hPa 0,0 l/m 2,3 km/h (1 Bft) O-NO 67 3,7 C 4,3 C 3,9 km/h (1 Bft)
27.10.2014 22:43 4,6 C 94 % 1024,1 hPa 0,0 l/m 2,6 km/h (1 Bft) NO 45 3,7 C 4,3 C 2,6 km/h (1 Bft)
27.10.2014 22:45 4,6 C 94 % 1024,1 hPa 0,0 l/m 2,6 km/h (1 Bft) NO 45 3,7 C 4,3 C 2,6 km/h (1 Bft)
27.10.2014 22:50 4,6 C 95 % 1024,1 hPa 0,0 l/m 1,8 km/h (1 Bft) NO 45 3,9 C 4,3 C 0,0 km/h (0 Bft)
27.10.2014 22:55 4,6 C 95 % 1024,1 hPa 0,0 l/m 1,0 km/h (0 Bft) O-SO 112 3,9 C 4,3 C 3,7 km/h (1 Bft)
27.10.2014 23:00 4,6 C 95 % 1024,0 hPa 0,0 l/m 1,1 km/h (1 Bft) S-SO 157 3,9 C 4,3 C 2,4 km/h (1 Bft)
27.10.2014 23:05 4,6 C 95 % 1024,0 hPa 0,0 l/m 1,6 km/h (1 Bft) O-NO 67 3,9 C 4,3 C 2,9 km/h (1 Bft)
27.10.2014 23:10 4,7 C 95 % 1024,0 hPa 0,0 l/m 1,1 km/h (1 Bft) N-NO 22 4,0 C 4,3 C 0,0 km/h (0 Bft)
27.10.2014 23:15 4,7 C 95 % 1024,0 hPa 0,0 l/m 0,8 km/h (0 Bft) O-NO 67 4,0 C 4,3 C 2,6 km/h (1 Bft)
27.10.2014 23:20 4,6 C 95 % 1023,9 hPa 0,0 l/m 1,1 km/h (1 Bft) O-NO 67 3,9 C 4,3 C 1,8 km/h (1 Bft)
27.10.2014 23:25 4,6 C 95 % 1023,9 hPa 0,0 l/m 1,1 km/h (1 Bft) O-SO 112 3,9 C 4,3 C 0,0 km/h (0 Bft)
27.10.2014 23:30 4,6 C 95 % 1023,9 hPa 0,0 l/m 0,6 km/h (0 Bft) O-NO 67 3,9 C 4,3 C 3,9 km/h (1 Bft)
27.10.2014 23:35 4,6 C 95 % 1023,9 hPa 0,0 l/m 1,3 km/h (1 Bft) SO 135 3,9 C 4,3 C 3,7 km/h (1 Bft)
27.10.2014 23:40 4,6 C 95 % 1023,9 hPa 0,0 l/m 1,6 km/h (1 Bft) O-NO 67 3,9 C 4,2 C 0,0 km/h (0 Bft)
27.10.2014 23:45 4,6 C 95 % 1023,9 hPa 0,0 l/m 1,4 km/h (1 Bft) O-NO 67 3,9 C 4,2 C 0,0 km/h (0 Bft)
27.10.2014 23:50 4,6 C 95 % 1023,9 hPa 0,0 l/m 1,4 km/h (1 Bft) O 90 3,9 C 4,2 C 3,2 km/h (1 Bft)
27.10.2014 23:55 4,5 C 95 % 1023,9 hPa 0,0 l/m 1,6 km/h (1 Bft) O-SO 112 3,8 C 4,2 C 2,9 km/h (1 Bft)
_ Min-Zeit 01:05 13:40 23:55 - 08:35 - - 01:05 05:15 23:45
Minimum _ 2,4 C 87 % 1023,9 hPa - 0,0 km/h (0 Bft) - - 1,5 C 1,6 C 0,0 km/h (0 Bft)
_ Max-Zeit 12:35 09:00 10:15 23:55 05:10 - - 11:40 11:50 14:55
Maximum _ 6,5 C 96 % 1027,7 hPa 0,0 l/m 4,8 km/h
SW (1 Bft)
- - 5,0 C 7,1 C 10,8 km/h
O-NO (2 Bft)
Durchschnitt _ 4,7 C 93 % 1026,1 hPa #0,0 l/m 1,9 km/h (1 Bft) O-NO - 3,6 C 4,4 C 2,5 km/h (1 Bft)